Powrót do katalogu

CZ-4 DEB

AktywnySSO
NORAD 26236·DEBRIS·🇨🇳 China

Wystrzelony Oct 14, 1999 z Taiyuan Satellite Launch Center

Loading…

Następne Przeloty (najbliższe 24 godziny)

TLE

ŚwieżeSource: Space-Track

Epoka: Sep 14, 2026, 09:41 UTC

1 26236U 99057EA  26257.40375223  .00000199  00000-0  75435-4 0  9994
2 26236  98.6972 309.4575 0088271 233.0829 138.3714 14.39752376389383

Śledź CZ-4 DEB w czasie rzeczywistym z AllMySat

Download on the App Store